{"data":{"norad_id":54198,"intl_designator":"2022-141AT","name":"STARLINK-5246","alt_names":[],"object_type":"PAYLOAD","status":"ACTIVE","operator":null,"country":"US","launch_date":"2022-10-28","launch_site_code":"AFWTR","launch_vehicle":null,"mission":null,"orbit_class":"UNKNOWN","rcs_meters":null,"size_class":null,"mass_kg":null,"dimensions":null,"purposes":["comms"],"wikipedia_slug":null,"has_3d_model":false,"image_url":null,"decayed_at":null,"tle_current":{"epoch":"2026-09-20T04:02:55.878720Z","epoch_age_seconds":118558,"freshness":"FRESH","line1":"1 54198U 22141AT  26263.16870230  .00000889  00000+0  36383-4 0  9994","line2":"2 54198  53.1601 189.4635 0001417  83.8293 276.2871 15.35401401215518","mean_motion":15.35401401,"eccentricity":0.0001417,"inclination_deg":53.1601,"raan_deg":189.4635,"arg_perigee_deg":83.8293,"mean_anomaly_deg":276.2871,"bstar":3.6383e-5,"rev_number":21551,"period_min":93.786549827435,"perigee_km":458.75955765712,"apogee_km":460.69740873506,"semimajor_km":6837.8654831961,"source":"CELESTRAK","updated_at":"2026-09-21T09:00:33.116026Z"}}}